Radiation Dose at Monitoring Post of Fukushima Daini Nuclear Power Station
Date,Time,MP-1(microSv/h),MP-2(microSv/h),MP-3(microSv/h),MP-4(microSv/h),MP-5(microSv/h),MP-6(microSv/h),MP-7(microSv/h),Wind Direction,Wind Velocity(m/s),Rain
2017/01/16,00:00,0.387,0.231,0.401,0.371,0.337,0.192,0.164,west-northwest,4.5,No
2017/01/16,00:10,0.388,0.232,0.400,0.370,0.338,0.193,0.164,west-northwest,5.1,No
2017/01/16,00:20,0.388,0.231,0.400,0.371,0.337,0.192,0.163,northwest,4.2,No
2017/01/16,00:30,0.388,0.232,0.400,0.371,0.336,0.192,0.165,west-northwest,8.2,No
2017/01/16,00:40,0.390,0.231,0.400,0.371,0.335,0.191,0.165,west-northwest,8.3,No
2017/01/16,00:50,0.388,0.231,0.399,0.370,0.335,0.192,0.165,west-northwest,9.4,No
2017/01/16,01:00,0.389,0.230,0.401,0.370,0.336,0.192,0.164,west-northwest,7.3,No
2017/01/16,01:10,0.386,0.232,0.401,0.371,0.336,0.192,0.164,west-northwest,9.2,No
2017/01/16,01:20,0.389,0.233,0.399,0.372,0.337,0.192,0.165,west-northwest,9.2,No
2017/01/16,01:30,0.389,0.233,0.399,0.371,0.337,0.192,0.164,northwest,8.2,No
2017/01/16,01:40,0.388,0.232,0.402,0.371,0.337,0.193,0.164,northwest,9.2,No
2017/01/16,01:50,0.389,0.232,0.401,0.371,0.336,0.191,0.164,west-northwest,10.1,No
2017/01/16,02:00,0.389,0.231,0.400,0.371,0.337,0.192,0.164,northwest,7.0,No
2017/01/16,02:10,0.388,0.231,0.400,0.372,0.336,0.192,0.164,northwest,5.5,No
2017/01/16,02:20,0.389,0.234,0.401,0.371,0.335,0.193,0.165,north-northwest,5.1,No
2017/01/16,02:30,0.388,0.231,0.401,0.370,0.336,0.191,0.165,north-northwest,5.8,No
2017/01/16,02:40,0.390,0.232,0.401,0.371,0.336,0.191,0.165,northwest,5.0,No
2017/01/16,02:50,0.389,0.233,0.400,0.372,0.336,0.191,0.165,northwest,5.9,No
2017/01/16,03:00,0.388,0.231,0.400,0.371,0.337,0.192,0.166,north-northwest,7.2,No
2017/01/16,03:10,0.389,0.233,0.400,0.372,0.336,0.192,0.165,northwest,4.8,No
2017/01/16,03:20,0.390,0.232,0.401,0.370,0.335,0.191,0.164,north-northwest,5.9,No
2017/01/16,03:30,0.388,0.233,0.401,0.372,0.336,0.191,0.166,north-northwest,5.0,No
2017/01/16,03:40,0.390,0.232,0.402,0.372,0.337,0.191,0.165,northwest,4.3,No
2017/01/16,03:50,0.388,0.232,0.399,0.372,0.336,0.191,0.164,northwest,4.4,No
2017/01/16,04:00,0.389,0.232,0.401,0.370,0.338,0.191,0.164,northwest,5.8,No
2017/01/16,04:10,0.388,0.234,0.400,0.371,0.335,0.192,0.163,northwest,4.8,No
2017/01/16,04:20,0.390,0.232,0.401,0.372,0.336,0.191,0.164,west-northwest,4.7,No
2017/01/16,04:30,0.389,0.231,0.401,0.372,0.336,0.192,0.164,west-northwest,4.5,No
2017/01/16,04:40,0.388,0.233,0.401,0.372,0.336,0.193,0.165,west-northwest,2.8,No
2017/01/16,04:50,0.390,0.231,0.399,0.370,0.336,0.191,0.164,west-northwest,3.1,No
2017/01/16,05:00,0.386,0.232,0.400,0.370,0.336,0.192,0.163,west-northwest,4.6,No
2017/01/16,05:10,0.388,0.231,0.401,0.371,0.337,0.192,0.164,west-northwest,7.0,No
2017/01/16,05:20,0.389,0.231,0.399,0.372,0.335,0.191,0.164,northwest,7.3,No
2017/01/16,05:30,0.389,0.232,0.400,0.371,0.337,0.191,0.164,west-northwest,5.0,No
2017/01/16,05:40,0.387,0.231,0.400,0.370,0.336,0.192,0.164,west-northwest,3.9,No
2017/01/16,05:50,0.388,0.233,0.399,0.370,0.336,0.192,0.164,north-northwest,3.3,No
2017/01/16,06:00,0.389,0.231,0.401,0.371,0.336,0.191,0.164,north-northwest,2.7,No
2017/01/16,06:10,0.388,0.232,0.401,0.370,0.337,0.191,0.164,north-northwest,4.1,No
2017/01/16,06:20,0.388,0.231,0.402,0.370,0.335,0.191,0.164,northwest,5.3,No
2017/01/16,06:30,0.388,0.231,0.399,0.370,0.336,0.192,0.164,northwest,5.6,No
2017/01/16,06:40,0.387,0.230,0.400,0.371,0.337,0.192,0.165,northwest,4.8,No
2017/01/16,06:50,0.386,0.231,0.399,0.370,0.337,0.191,0.164,west-northwest,3.1,No
2017/01/16,07:00,0.389,0.231,0.400,0.371,0.335,0.191,0.165,west-northwest,3.9,No
2017/01/16,07:10,0.388,0.231,0.402,0.371,0.337,0.191,0.164,west,5.9,No
2017/01/16,07:20,0.389,0.231,0.401,0.371,0.335,0.191,0.164,west,9.0,No
2017/01/16,07:30,0.388,0.231,0.398,0.369,0.335,0.191,0.164,west,9.2,No
2017/01/16,07:40,0.389,0.232,0.400,0.370,0.337,0.192,0.165,west,6.7,No
2017/01/16,07:50,0.390,0.231,0.400,0.370,0.337,0.191,0.165,west,5.3,No
2017/01/16,08:00,0.388,0.233,0.401,0.372,0.336,0.190,0.164,west,9.2,No
2017/01/16,08:10,0.388,0.230,0.400,0.370,0.335,0.191,0.164,west-northwest,9.0,No
2017/01/16,08:20,0.388,0.231,0.400,0.371,0.336,0.191,0.164,west-northwest,11.4,No
2017/01/16,08:30,0.388,0.231,0.399,0.370,0.336,0.191,0.164,west,11.6,No
2017/01/16,08:40,0.387,0.231,0.401,0.372,0.337,0.192,0.164,west,12.5,No
2017/01/16,08:50,0.389,0.231,0.401,0.370,0.336,0.191,0.164,west,10.9,No
2017/01/16,09:00,0.387,0.231,0.401,0.369,0.337,0.192,0.165,west,12.6,No
2017/01/16,09:10,0.387,0.231,0.400,0.370,0.336,0.191,0.165,west,12.3,No
2017/01/16,09:20,0.388,0.231,0.401,0.372,0.335,0.191,0.166,west,9.7,No
2017/01/16,09:30,0.386,0.230,0.400,0.370,0.337,0.192,0.163,west,8.9,No
2017/01/16,09:40,0.388,0.230,0.401,0.369,0.337,0.192,0.165,west,7.8,No
2017/01/16,09:50,0.389,0.230,0.401,0.370,0.336,0.192,0.164,west-northwest,7.0,No
2017/01/16,10:00,0.389,0.230,0.400,0.369,0.336,0.192,0.165,west-northwest,7.1,No
2017/01/16,10:10,0.386,0.229,0.400,0.370,0.337,0.191,0.164,west-northwest,8.1,No
2017/01/16,10:20,0.389,0.232,0.399,0.370,0.336,0.191,0.164,west,6.1,No
2017/01/16,10:30,0.385,0.232,0.402,0.370,0.335,0.192,0.165,west,8.1,No
2017/01/16,10:40,0.385,0.231,0.401,0.371,0.334,0.192,0.165,west,9.0,No
2017/01/16,10:50,0.388,0.231,0.402,0.373,0.338,0.192,0.165,west,10.9,No
2017/01/16,11:00,0.388,0.231,0.399,0.370,0.336,0.193,0.165,west,11.5,No
2017/01/16,11:10,0.388,0.231,0.401,0.372,0.334,0.193,0.164,west-northwest,9.6,No
2017/01/16,11:20,0.387,0.231,0.401,0.372,0.338,0.191,0.164,west-northwest,9.6,No
2017/01/16,11:30,0.388,0.232,0.401,0.371,0.338,0.192,0.163,west,6.9,No
2017/01/16,11:40,0.387,0.232,0.401,0.371,0.335,0.191,0.164,west-northwest,8.2,No
2017/01/16,11:50,0.389,0.231,0.399,0.371,0.335,0.192,0.164,west-northwest,9.0,No
2017/01/16,12:00,0.386,0.233,0.400,0.369,0.337,0.192,0.165,west-northwest,7.5,No
2017/01/16,12:10,0.386,0.232,0.399,0.372,0.336,0.192,0.165,west-northwest,5.9,No
2017/01/16,12:20,0.386,0.231,0.401,0.371,0.338,0.191,0.164,west,5.9,No
2017/01/16,12:30,0.389,0.232,0.400,0.371,0.337,0.192,0.165,northwest,3.5,No
2017/01/16,12:40,0.387,0.232,0.400,0.373,0.336,0.192,0.164,north-northwest,4.7,No
2017/01/16,12:50,0.390,0.233,0.400,0.371,0.337,0.191,0.165,north-northwest,4.2,No
2017/01/16,13:00,0.390,0.231,0.402,0.371,0.338,0.191,0.165,north-northwest,3.5,No
2017/01/16,13:10,0.390,0.231,0.401,0.371,0.337,0.193,0.164,north-northwest,7.5,No
2017/01/16,13:20,0.387,0.231,0.400,0.369,0.338,0.193,0.164,north-northwest,9.0,No
2017/01/16,13:30,0.389,0.232,0.397,0.371,0.337,0.192,0.163,northwest,7.2,No
2017/01/16,13:40,0.387,0.232,0.398,0.373,0.339,0.191,0.165,west-northwest,7.5,No
2017/01/16,13:50,0.387,0.231,0.399,0.368,0.337,0.191,0.163,northwest,6.1,No
2017/01/16,14:00,0.389,0.232,0.399,0.371,0.335,0.191,0.164,northwest,6.3,No
2017/01/16,14:10,0.389,0.232,0.401,0.370,0.338,0.192,0.164,northwest,7.0,No
2017/01/16,14:20,0.389,0.232,0.401,0.371,0.339,0.192,0.165,northwest,5.0,No
2017/01/16,14:30,0.390,0.232,0.401,0.375,0.337,0.191,0.166,north-northwest,5.0,No
2017/01/16,14:40,0.391,0.233,0.401,0.373,0.338,0.191,0.164,northwest,6.9,No
2017/01/16,14:50,0.389,0.231,0.403,0.371,0.338,0.192,0.165,northwest,5.3,No
2017/01/16,15:00,0.388,0.233,0.400,0.373,0.337,0.191,0.165,northwest,5.1,No
2017/01/16,15:10,0.391,0.232,0.401,0.372,0.337,0.192,0.165,west-northwest,5.3,No
2017/01/16,15:20,0.389,0.232,0.401,0.372,0.338,0.191,0.166,west-northwest,4.8,No
2017/01/16,15:30,0.390,0.232,0.402,0.373,0.337,0.193,0.165,northwest,4.7,No
2017/01/16,15:40,0.390,0.232,0.400,0.372,0.336,0.193,0.165,north-northwest,3.6,No
2017/01/16,15:50,0.389,0.233,0.401,0.373,0.337,0.191,0.165,northwest,3.9,No
2017/01/16,16:00,0.390,0.232,0.401,0.373,0.338,0.192,0.165,north-northwest,4.8,No
2017/01/16,16:10,0.389,0.233,0.401,0.373,0.336,0.192,0.164,west-northwest,5.0,No
2017/01/16,16:20,0.388,0.232,0.401,0.372,0.337,0.192,0.164,northwest,5.0,No
2017/01/16,16:30,0.389,0.232,0.401,0.373,0.338,0.192,0.165,northwest,7.9,No
2017/01/16,16:40,0.391,0.232,0.400,0.373,0.337,0.192,0.165,northwest,7.6,No
2017/01/16,16:50,0.389,0.233,0.401,0.372,0.337,0.192,0.165,west-northwest,8.4,No
2017/01/16,17:00,0.388,0.232,0.401,0.371,0.337,0.193,0.164,northwest,7.6,No
2017/01/16,17:10,0.391,0.233,0.404,0.373,0.339,0.192,0.165,northwest,5.8,No
2017/01/16,17:20,0.390,0.232,0.400,0.373,0.337,0.192,0.165,north-northwest,7.2,No
2017/01/16,17:30,0.390,0.232,0.400,0.372,0.338,0.192,0.164,north-northwest,8.0,No
2017/01/16,17:40,0.389,0.233,0.401,0.372,0.337,0.193,0.165,northwest,7.3,No
2017/01/16,17:50,0.390,0.232,0.402,0.374,0.338,0.192,0.164,north-northwest,7.5,No
2017/01/16,18:00,0.390,0.231,0.400,0.373,0.338,0.193,0.165,north-northwest,6.2,No
2017/01/16,18:10,0.390,0.233,0.402,0.371,0.338,0.193,0.165,north-northwest,7.3,No
2017/01/16,18:20,0.390,0.233,0.401,0.373,0.337,0.192,0.164,north-northwest,7.1,No
2017/01/16,18:30,0.391,0.232,0.401,0.372,0.338,0.193,0.164,north-northwest,6.4,No
2017/01/16,18:40,0.391,0.232,0.399,0.373,0.338,0.193,0.165,northwest,8.7,No
2017/01/16,18:50,0.389,0.231,0.401,0.372,0.337,0.193,0.164,north-northwest,6.4,No
2017/01/16,19:00,0.389,0.233,0.401,0.372,0.336,0.192,0.165,north-northwest,6.7,No
2017/01/16,19:10,0.390,0.232,0.401,0.374,0.338,0.191,0.164,north-northwest,7.7,No
2017/01/16,19:20,0.389,0.232,0.402,0.373,0.336,0.192,0.164,northwest,7.0,No
2017/01/16,19:30,0.390,0.231,0.402,0.371,0.337,0.192,0.164,north-northwest,6.7,No
2017/01/16,19:40,0.389,0.232,0.400,0.372,0.337,0.192,0.165,north-northwest,8.9,No
2017/01/16,19:50,0.391,0.232,0.402,0.374,0.339,0.193,0.165,north-northwest,9.0,No
2017/01/16,20:00,0.389,0.233,0.401,0.371,0.337,0.192,0.165,north-northwest,9.0,No
2017/01/16,20:10,0.390,0.231,0.400,0.372,0.338,0.192,0.165,north-northwest,9.2,No
2017/01/16,20:20,0.390,0.233,0.401,0.373,0.338,0.193,0.165,north-northwest,8.7,No
2017/01/16,20:30,0.390,0.233,0.400,0.371,0.336,0.192,0.165,north-northwest,10.0,No
2017/01/16,20:40,0.389,0.232,0.403,0.373,0.337,0.191,0.165,north-northwest,9.3,No
2017/01/16,20:50,0.389,0.232,0.401,0.371,0.336,0.192,0.164,north-northwest,7.2,No
2017/01/16,21:00,0.391,0.233,0.400,0.372,0.337,0.192,0.165,northwest,8.0,No
2017/01/16,21:10,0.391,0.231,0.400,0.372,0.336,0.192,0.165,north-northwest,8.4,No
2017/01/16,21:20,0.392,0.232,0.401,0.372,0.337,0.191,0.164,north-northwest,7.1,No
2017/01/16,21:30,0.390,0.232,0.399,0.371,0.338,0.192,0.165,northwest,6.3,No
2017/01/16,21:40,0.390,0.233,0.401,0.373,0.336,0.191,0.164,north-northwest,7.9,No
2017/01/16,21:50,0.390,0.232,0.401,0.371,0.336,0.192,0.165,north-northwest,7.6,No
2017/01/16,22:00,0.390,0.231,0.402,0.371,0.338,0.193,0.164,north-northwest,8.7,No
2017/01/16,22:10,0.390,0.232,0.400,0.372,0.336,0.193,0.163,north-northwest,8.1,No
2017/01/16,22:20,0.389,0.232,0.400,0.372,0.336,0.192,0.164,north-northwest,8.4,No
2017/01/16,22:30,0.392,0.232,0.401,0.372,0.337,0.191,0.165,north-northwest,7.3,No
2017/01/16,22:40,0.391,0.232,0.402,0.372,0.337,0.192,0.164,north-northwest,7.7,No
2017/01/16,22:50,0.390,0.231,0.400,0.371,0.336,0.192,0.165,north-northwest,6.7,No
2017/01/16,23:00,0.391,0.232,0.400,0.373,0.337,0.193,0.165,north-northwest,6.4,No
2017/01/16,23:10,0.389,0.233,0.401,0.371,0.336,0.193,0.165,north-northwest,6.8,No
2017/01/16,23:20,0.390,0.231,0.401,0.371,0.336,0.192,0.165,north-northwest,6.7,No
2017/01/16,23:30,0.388,0.231,0.401,0.372,0.337,0.192,0.164,north-northwest,6.8,No
2017/01/16,23:40,0.390,0.231,0.401,0.372,0.338,0.191,0.163,northwest,4.6,No
2017/01/16,23:50,0.390,0.232,0.401,0.372,0.336,0.192,0.166,northwest,6.2,No
